Terminal Aerodrome Forecast
Issued by NWS

Home | Current Version | Previous Version | Text Only | Print | Product List | Glossary On
Versions: 1 2 3 4 5 6 7 8 9 10 11 12 13 14 15 16
000
FTAK31 PAJN 290500
TAFAGY
TAF
PAGY 290524Z 2906/3006 04016G24KT P6SM FEW200
     FM291500 04010KT P6SM SCT200
     FM292100 VRB05KT P6SM SCT200
      AMD LTD TO CLD VIS AND WIND=

USA.gov is the U.S. government's official web portal to all federal, state and local government web resources and services.